Powrót do katalogu

GEOSKAN-6

AktywnyNaukaSSO
NORAD 64879·PAYLOAD·🇷🇺 Russia
Ta nazwa satelity nie została jeszcze potwierdzona przez oficjalne źródła.

Wystrzelony Jul 25, 2025 z Vostochny Cosmodrome

Loading…

Następne Przeloty (najbliższe 24 godziny)

TLE

ŚwieżeSource: Space-Track

Epoka: Sep 14, 2026, 22:08 UTC

1 64879U 25155D   26257.92246590  .00010717  00000-0  35222-3 0  9994
2 64879  97.4667 226.9761 0006369 203.6466 156.4484 15.31715728 94497

Śledź GEOSKAN-6 w czasie rzeczywistym z AllMySat

Download on the App Store